Weather reports worldwide

Advertisment
Sangley Point, Philippines (98428): temperature & dewpoint: 14.08.2019 01:00:00 - 20.08.2019 01:00:00 (PHT)Sangley Point, Philippines (98428): wind speed: 14.08.2019 01:00:00 - 20.08.2019 01:00:00 (PHT)Sangley Point, Philippines (98428): wind direction: 14.08.2019 01:00:00 - 20.08.2019 01:00:00 (PHT)Sangley Point, Philippines (98428): reduced air pressure: 14.08.2019 01:00:00 - 20.08.2019 01:00:00 (PHT)Sangley Point, Philippines (98428): visibility: 14.08.2019 01:00:00 - 20.08.2019 01:00:00 (PHT)
Date & Time tt [°C] td [°C] ff [km/h] ff [kn] dd ppp [hPa] vv [km]
20.08.2019 01:00:00 - - - - - - -
20.08.2019 00:00:00 - - - - - - -
19.08.2019 23:00:00 29,1 25,3 11 6 SW 1009,2 8
19.08.2019 22:00:00 - - - - - - -
19.08.2019 21:00:00 - - - - - - -
19.08.2019 20:00:00 29,5 25,2 14 8 SW 1008,1 8
19.08.2019 19:00:00 - - - - - - -
19.08.2019 18:00:00 - - - - - - -
19.08.2019 17:00:00 30,1 26,0 14 8 SW 1006,6 12
19.08.2019 16:00:00 - - - - - - -
19.08.2019 15:00:00 - - - - - - -
19.08.2019 14:00:00 32,6 26,4 11 6 SW 1006,8 12
19.08.2019 13:00:00 - - - - - - -
19.08.2019 12:00:00 - - - - - - -
19.08.2019 11:00:00 30,3 26,3 11 6 SW 1008,4 10
19.08.2019 10:00:00 - - - - - - -
19.08.2019 09:00:00 - - - - - - -
19.08.2019 08:00:00 29,9 25,3 7 4 NW 1008,5 10
19.08.2019 07:00:00 - - - - - - -
19.08.2019 06:00:00 - - - - - - -
19.08.2019 05:00:00 28,3 25,0 11 6 W 1008,1 8
19.08.2019 04:00:00 - - - - - - -
19.08.2019 03:00:00 - - - - - - -
19.08.2019 02:00:00 28,9 25,4 14 8 SW 1008,6 8
19.08.2019 01:00:00 - - - - - - -
19.08.2019 00:00:00 - - - - - - -
18.08.2019 23:00:00 29,1 25,3 7 4 SW 1010,0 8
18.08.2019 22:00:00 - - - - - - -
18.08.2019 21:00:00 - - - - - - -
18.08.2019 20:00:00 29,4 25,5 18 10 SW 1009,1 8
18.08.2019 19:00:00 - - - - - - -
18.08.2019 18:00:00 - - - - - - -
18.08.2019 17:00:00 31,2 25,7 18 10 SW 1007,5 14
18.08.2019 16:00:00 - - - - - - -
18.08.2019 15:00:00 - - - - - - -
18.08.2019 14:00:00 32,5 27,1 18 10 SW 1008,4 14
18.08.2019 13:00:00 - - - - - - -
18.08.2019 12:00:00 - - - - - - -
18.08.2019 11:00:00 32,3 26,7 11 6 W 1010,6 12
18.08.2019 10:00:00 - - - - - - -
18.08.2019 09:00:00 - - - - - - -
18.08.2019 08:00:00 29,1 25,3 7 4 NNW 1010,5 12
18.08.2019 07:00:00 - - - - - - -
18.08.2019 06:00:00 - - - - - - -
18.08.2019 05:00:00 27,4 24,6 7 4 NW 1010,1 8
18.08.2019 04:00:00 - - - - - - -
18.08.2019 03:00:00 - - - - - - -
18.08.2019 02:00:00 28,5 25,4 11 6 SW 1010,3 8
18.08.2019 01:00:00 - - - - - - -
18.08.2019 00:00:00 - - - - - - -
17.08.2019 23:00:00 29,1 25,4 7 4 SW 1011,3 8
17.08.2019 22:00:00 - - - - - - -
17.08.2019 21:00:00 - - - - - - -
17.08.2019 20:00:00 29,3 25,9 14 8 SW 1010,3 8
17.08.2019 19:00:00 - - - - - - -
17.08.2019 18:00:00 - - - - - - -
17.08.2019 17:00:00 31,1 26,1 22 12 SW 1008,4 14
17.08.2019 16:00:00 - - - - - - -
17.08.2019 15:00:00 - - - - - - -
17.08.2019 14:00:00 32,2 27,0 18 10 SW 1009,2 14
17.08.2019 13:00:00 - - - - - - -
17.08.2019 12:00:00 - - - - - - -
17.08.2019 11:00:00 31,6 26,5 18 10 SW 1011,1 12
17.08.2019 10:00:00 - - - - - - -
17.08.2019 09:00:00 - - - - - - -
17.08.2019 08:00:00 29,1 24,9 11 6 SW 1010,7 12
17.08.2019 07:00:00 - - - - - - -
17.08.2019 06:00:00 - - - - - - -
17.08.2019 05:00:00 27,2 24,1 4 2 SSE 1010,3 8
17.08.2019 04:00:00 - - - - - - -
17.08.2019 03:00:00 - - - - - - -
17.08.2019 02:00:00 27,4 24,1 7 4 SSW 1010,3 8
17.08.2019 01:00:00 - - - - - - -
17.08.2019 00:00:00 - - - - - - -
16.08.2019 23:00:00 28,3 25,0 14 8 SW 1011,3 8
16.08.2019 22:00:00 - - - - - - -
16.08.2019 21:00:00 - - - - - - -
16.08.2019 20:00:00 29,1 25,4 18 10 SW 1010,2 8
16.08.2019 19:00:00 - - - - - - -
16.08.2019 18:00:00 - - - - - - -
16.08.2019 17:00:00 31,1 25,6 14 8 SW 1008,9 14
16.08.2019 16:00:00 - - - - - - -
16.08.2019 15:00:00 - - - - - - -
16.08.2019 14:00:00 32,3 26,2 22 12 SW 1008,9 12
16.08.2019 13:00:00 - - - - - - -
16.08.2019 12:00:00 - - - - - - -
16.08.2019 11:00:00 32,0 26,1 18 10 SSW 1010,4 12
16.08.2019 10:00:00 - - - - - - -
16.08.2019 09:00:00 - - - - - - -
16.08.2019 08:00:00 28,3 25,8 7 4 SW 1009,7 10
16.08.2019 07:00:00 - - - - - - -
16.08.2019 06:00:00 - - - - - - -
16.08.2019 05:00:00 27,2 24,7 7 4 SE 1009,2 8
16.08.2019 04:00:00 - - - - - - -
16.08.2019 03:00:00 - - - - - - -
16.08.2019 02:00:00 27,5 24,7 7 4 SW 1009,3 8
16.08.2019 01:00:00 - - - - - - -
16.08.2019 00:00:00 - - - - - - -
15.08.2019 23:00:00 28,3 24,6 7 4 ESE 1010,3 8
15.08.2019 22:00:00 - - - - - - -
15.08.2019 21:00:00 - - - - - - -
15.08.2019 20:00:00 29,3 24,8 11 6 SW 1009,3 8
15.08.2019 19:00:00 - - - - - - -
15.08.2019 18:00:00 - - - - - - -
15.08.2019 17:00:00 29,6 25,8 18 10 SW 1008,0 10
15.08.2019 16:00:00 - - - - - - -
15.08.2019 15:00:00 - - - - - - -
15.08.2019 14:00:00 30,8 26,3 22 12 SW 1008,3 10
15.08.2019 13:00:00 - - - - - - -
15.08.2019 12:00:00 - - - - - - -
15.08.2019 11:00:00 30,1 26,0 18 10 SW 1009,8 10
15.08.2019 10:00:00 - - - - - - -
15.08.2019 09:00:00 - - - - - - -
15.08.2019 08:00:00 29,8 25,8 11 6 S 1009,4 10
15.08.2019 07:00:00 - - - - - - -
15.08.2019 06:00:00 - - - - - - -
15.08.2019 05:00:00 28,0 25,1 11 6 SSW 1008,5 8
15.08.2019 04:00:00 - - - - - - -
15.08.2019 03:00:00 - - - - - - -
15.08.2019 02:00:00 28,3 25,4 11 6 SSW 1008,5 8
15.08.2019 01:00:00 - - - - - - -
15.08.2019 00:00:00 - - - - - - -
14.08.2019 23:00:00 28,3 25,3 7 4 S 1009,6 8
14.08.2019 22:00:00 - - - - - - -
14.08.2019 21:00:00 - - - - - - -
14.08.2019 20:00:00 29,0 26,0 14 8 SW 1009,2 8
14.08.2019 19:00:00 - - - - - - -
14.08.2019 18:00:00 - - - - - - -
14.08.2019 17:00:00 30,3 26,0 14 8 SW 1007,6 12
14.08.2019 16:00:00 - - - - - - -
14.08.2019 15:00:00 - - - - - - -
14.08.2019 14:00:00 32,1 26,4 18 10 SW 1007,6 14
14.08.2019 13:00:00 - - - - - - -
14.08.2019 12:00:00 - - - - - - -
14.08.2019 11:00:00 31,4 26,2 14 8 SW 1008,7 10
14.08.2019 10:00:00 - - - - - - -
14.08.2019 09:00:00 - - - - - - -
14.08.2019 08:00:00 29,1 25,6 14 8 SW 1009,0 10
14.08.2019 07:00:00 - - - - - - -
14.08.2019 06:00:00 - - - - - - -
14.08.2019 05:00:00 28,4 25,5 14 8 SW 1008,2 8
14.08.2019 04:00:00 - - - - - - -
14.08.2019 03:00:00 - - - - - - -
14.08.2019 02:00:00 28,4 25,4 14 8 SW 1008,4 8
14.08.2019 01:00:00 - - - - - - -

tt = temperature
td = dewpoint
ff = wind speed
dd = wind direction
ppp = reduced air pressure
vv = visibility

Next stations